CZ-6A R/B, 64961

Orbit data source: Space-Track

CZ-6A R/B, 64961 is space debris in LEO originally from a launch on Sun, 27 Jul 2025 UTC launched from the Taiyaun Space Center, China (TSC). Debris objects in space refer to the collection of defunct objects orbiting the Earth. Examples of debris include non-operational satellites, rocket bodies, and fragments generated from explosions, collisions, or faulty payload assembly.

Loading next visibility...
Identifier
64961, 2025-159F
Orbit
LEO
Country
Flag of CNCN / PRC
Related business
Manufacturer
SAST
Mission
Spacecraft
Bus & Motor
CZ-6A STAGE 2, YF-115
Mass
~6,000 kg wet, ~6,000 kg dry
Launch date (UTC)
2025-07-27 (4 months ago)
Launch vehicle
Unknown
Launch site
Taiyaun Space Center, China (TSC)
Object type
Payload
Rocket body
Debris
Shape & HBR
Unknown shape, 4.4 m
Radar Cross Section
Large (>1 m²)

Expand to show TLE details & history
Last TLE update: 11 hours ago

TLE from 11 hours ago
0 CZ-6A R/B
1 64961U 25159F   25342.54885667  .00000117  00000-0  70883-4 0  9992
2 64961  86.5062 342.1327 0104629  66.3168 294.8943 13.94042692 18669
Epoch: 2025-12-08T13:10Z
TLE epoch observation values (Epoch: 2025-12-08T13:10:21.216Z)
Latitude
-0.00003°
Longitude
66.998°
Altitude
886.029 km
Speed
7.425 km/s
True Right ascension
22h 48m 31s
True Declination
0° 00' 00"
Sunlit
Object was in daylight at epoch
Visualization orbit readout
Latitude
Unknown
Longitude
Unknown
Altitude
Unknown
Speed
Unknown
Apparent Right ascension
Unknown
Apparent Declination
Unknown
Sunlit
N/A
Visualization observer readout
Local Sidereal Time
21:53:12
Azimuth
Unknown
Elevation
Unknown
Doppler factor
Unknown
Orbital elements
Apogee altitude
987.788 km
Perigee altitude
835.246 km
Semi-major axis
7,289.654 km
Eccentricity
0.01046
Inclination
86.5062°
RAAN
342.1327°
Arg. of periapsis
66.3168°
True anomaly
293.80079°
Mean anomaly
294.8943°
Eccentric anomaly
294.34814°
Mean motion
3.48725 °/min
Orbital period
103.23 mins
BSTAR
0.000070883
Loading maneuver chart data...
Computing Atmospheric mass density...
Loading historical data...
Loading historical data...
Loading historical data...
Loading historical data...
Loading historical data...
Loading historical data...
Loading historical data...

Documentation

Showing up to 5 results
|